Temperature
14 14 15 15 15 14 14 13 13 13 13 13 13 13 13 14 14 14 14 14 15 14 14 14 14 14 14 14 14 14 13 13 13 13 13 13 13 13 13 13 13 12 12 12
14 14 14 14 14 14 13 13 13 13 13 13 13 13 13 13 13 13 14 14 14 14 14 14 14 14 14 14 13 13 13 13 13 13 13 13 13 13 12 12 12 12 12 12
12 13 14 13 13 13 13 13 13 13 13 12 12 12 13 13 13 13 13 13 13 13 14 13 13 13 13 13 13 13 13 13 12 12 12 12 12 12 12 12 12 12 11 11
11 13 13 13 13 13 13 13 12 12 12 12 12 13 13 13 13 13 13 13 13 13 13 13 13 13 12 12 12 12 12 12 12 12 12 12 12 12 12 11 11 11 11 11
10 11 12 13 13 13 13 12 12 11 11 12 12 12 12 13 12 12 12 12 12 12 12 12 12 12 12 12 12 12 12 12 12 12 11 11 11 11 11 11 11 11 11 10
9 11 12 13 13 13 13 12 12 11 11 11 11 10 10 12 12 12 12 12 12 12 12 12 12 11 11 11 11 11 11 11 11 11 11 11 11 11 11 11 11 10 10 10
9 10 11 12 12 13 12 12 12 12 12 11 10 11 12 11 12 11 11 11 11 11 11 11 11 11 11 11 11 11 11 11 11 11 10 11 11 11 10 10 10 10 10 10
9 10 11 12 11 11 11 12 12 12 12 11 11 11 11 11 11 11 11 11 11 11 11 10 10 10 10 10 10 10 10 10 10 10 10 10 10 10 10 10 10 10 10 10
9 10 11 11 12 12 12 12 12 12 11 11 11 11 11 11 10 10 10 10 10 10 10 10 10 10 10 10 10 9 10 10 10 9 9 9 9 10 9 9 9 9 9 9
8 9 10 11 12 12 12 12 12 11 11 11 10 10 10 10 10 10 10 10 10 10 10 10 10 9 9 9 9 9 9 9 9 9 9 9 9 9 9 9 9 8 8 8
8 8 10 11 11 11 11 11 11 11 11 10 10 10 10 9 9 9 9 9 9 9 9 9 9 9 9 9 9 9 9 9 8 8 8 8 8 8 8 8 8 8 8 8
8 10 9 10 11 11 11 11 10 10 10 10 10 9 9 9 9 9 9 9 9 9 9 9 9 8 8 8 8 8 8 8 8 8 8 8 8 8 8 8 7 7 7 7
11 11 10 10 10 10 10 10 10 10 9 9 9 9 9 9 9 8 8 8 8 8 8 8 8 8 8 8 8 8 7 7 7 7 7 7 7 7 7 7 7 7 7 7
10 10 9 10 10 10 10 9 9 9 9 9 9 9 8 8 8 8 8 8 8 7 7 7 7 7 8 7 7 7 7 7 7 7 6 6 7 7 7 6 6 6 7 7
9 9 9 9 9 9 9 9 9 9 9 8 8 8 8 8 8 7 7 7 7 7 7 7 7 7 7 7 7 7 7 6 6 6 6 6 6 6 6 6 6 6 6 6
9 9 9 9 9 8 8 8 8 8 8 8 8 8 7 7 7 7 7 7 6 6 6 6 6 6 6 6 6 6 6 6 6 6 6 6 5 5 5 5 5 5 5 5
8 8 8 8 8 8 8 8 8 8 7 7 7 7 7 7 7 6 6 6 6 6 6 6 6 6 6 6 5 5 5 5 5 5 5 5 5 5 5 5 5 5 5 5
9 8 8 8 8 8 7 7 7 7 7 7 7 6 6 6 6 6 6 6 5 5 5 5 5 5 5 5 5 5 5 5 5 5 5 5 5 4 4 4 4 4 4 4
8 8 8 8 7 7 7 7 7 6 6 6 6 6 6 6 6 5 5 5 5 5 5 4 4 4 4 4 4 4 4 4 4 4 4 4 4 4 4 4 4 4 4 4
8 7 7 7 7 7 6 6 6 6 6 6 6 6 5 5 5 5 5 5 4 4 4 4 4 4 4 4 3 4 4 4 4 4 4 4 4 3 3 3 3 3 3 3
7 7 7 7 6 6 6 6 6 6 6 5 5 5 5 5 4 4 4 4 4 4 4 3 3 3 3 3 3 3 3 3 3 3 3 3 3 3 3 3 3 3 3 3
7 6 6 6 6 6 6 5 5 5 5 5 5 5 4 4 4 4 4 4 3 3 3 3 3 3 3 3 3 3 3 3 3 3 2 2 2 2 2 2 2 2 2 2
6 6 6 5 5 5 5 5 5 5 4 4 4 4 4 4 4 3 3 3 3 3 3 3 2 2 2 2 2 2 2 2 2 2 2 2 2 2 2 2 2 2 2 2
5 5 5 5 5 5 5 5 4 4 4 4 4 4 3 3 3 3 3 3 2 2 2 2 2 2 2 2 2 2 2 2 2 1 1 1 1 1 1 1 1 1 1 1
5 5 5 4 4 4 4 4 4 4 3 3 3 3 3 3 3 3 2 2 2 2 2 2 2 2 2 1 1 1 1 1 1 1 1 1 1 1 1 1 1 1 1 1
4 4 4 4 4 4 4 4 3 3 3 3 3 3 2 2 2 2 2 2 2 1 1 1 1 1 1 1 1 1 1 1 1 1 0 0 0 0 0 0 0 0 1 1
4 4 4 4 3 3 3 3 3 3 3 3 2 2 2 2 2 2 1 1 1 1 1 1 1 0 0 0 0 0 0 0 0 -0 -0 -0 -0 -0 -0 -0 -0 -0 0 0
Wind_Speed
5 5 3 4 5 5 6 7 8 7 7 8 6 5 4 3 3 2 2 2 2 2 2 2 2 2 2 2 2 3 2 3 4 5 4 4 3 4 4 4 4 4 3 3
3 3 2 4 6 5 6 5 6 5 6 5 4 2 2 3 2 2 3 3 3 3 3 3 3 3 3 3 3 3 3 4 4 3 3 4 4 4 4 4 4 3 3 3
3 4 4 5 5 4 3 2 4 6 6 2 2 2 3 3 2 2 3 3 3 3 4 4 4 3 3 4 3 3 3 4 4 4 4 4 4 4 5 5 4 4 4 4
1 1 5 6 2 2 3 3 3 3 3 2 3 2 2 1 2 3 3 4 4 4 4 4 3 3 2 2 2 3 3 4 4 4 5 4 4 5 5 4 4 5 5 5
3 3 6 5 3 1 3 4 2 3 3 2 2 3 3 3 2 3 3 3 4 4 4 3 3 2 1 2 2 2 4 5 5 5 5 5 5 6 5 4 5 5 4 5
3 3 5 6 3 1 2 4 3 2 2 1 2 2 4 4 4 4 4 3 3 3 3 3 3 2 1 2 2 3 4 5 5 5 5 6 6 5 4 4 6 5 5 5
4 5 6 6 3 2 2 5 3 2 3 2 3 5 4 4 4 3 4 4 3 3 3 3 3 1 2 2 3 5 4 3 3 4 5 5 4 4 4 4 4 5 5 5
4 4 7 3 2 4 5 2 1 1 2 2 3 3 4 4 4 4 4 3 3 2 3 3 3 2 3 4 5 4 3 2 3 3 3 2 3 3 3 3 4 4 4 4
7 6 3 2 3 2 1 1 2 1 2 2 3 4 4 4 4 4 4 4 2 1 3 3 3 2 3 5 4 4 3 3 3 3 2 1 2 2 2 2 3 4 4 4
3 5 4 4 2 2 2 3 3 2 2 2 4 4 4 4 4 4 4 4 3 2 3 4 4 3 3 4 3 2 3 3 2 2 2 2 1 1 2 2 3 3 4 4
4 5 5 4 3 3 2 2 1 1 1 2 3 4 4 4 4 4 4 4 2 2 3 4 4 4 4 3 3 3 3 3 2 1 2 2 2 2 2 3 4 4 4 4
6 6 4 5 4 2 2 2 2 2 3 3 2 4 4 4 4 4 4 3 3 3 3 4 4 4 4 3 2 2 2 3 2 1 1 1 2 3 4 3 5 5 5 5
6 4 4 4 3 2 2 2 2 2 3 3 4 3 3 4 4 3 3 3 3 4 4 4 4 4 4 3 2 2 2 3 2 2 2 2 2 1 3 5 4 4 5 5
3 1 2 3 3 2 1 1 1 2 3 2 3 2 2 3 3 3 4 4 3 3 3 4 4 5 5 3 2 2 2 3 2 2 2 2 2 2 2 3 4 4 5 5
3 4 4 3 2 1 1 0 1 3 3 3 3 3 3 3 4 4 4 4 2 2 3 4 4 5 5 3 2 2 2 2 2 2 2 2 2 2 2 2 3 4 4 4
3 1 2 2 2 2 2 2 2 4 4 3 4 4 3 3 3 4 4 3 2 3 4 4 4 5 4 3 2 2 2 3 3 2 2 2 2 2 2 2 3 3 3 3
2 2 3 3 4 4 3 3 4 4 4 4 4 4 3 3 4 4 4 4 3 4 4 4 5 5 4 3 2 2 2 3 4 3 2 2 2 2 2 2 3 3 4 4
6 6 6 6 5 4 3 3 3 3 4 5 4 2 2 3 4 5 5 4 3 4 4 5 4 4 3 3 2 2 2 2 2 2 2 2 2 3 2 3 3 3 3 3
2 3 3 4 4 4 3 3 3 3 4 3 3 3 4 4 4 4 3 3 3 5 6 5 6 3 3 3 3 2 2 2 3 2 2 3 3 2 2 3 3 3 3 3
1 1 1 2 2 2 3 3 3 3 3 3 3 3 3 4 3 3 3 3 4 4 5 5 4 3 3 3 3 2 2 2 2 3 3 2 2 3 3 3 3 3 3 3
1 1 1 2 2 2 3 3 3 4 4 3 3 3 4 4 3 2 2 4 5 4 4 5 4 3 3 3 3 2 2 2 2 3 3 3 3 3 3 3 3 3 3 3
1 2 2 2 2 3 3 2 2 3 3 3 3 3 2 3 3 3 3 4 4 5 3 3 3 4 4 5 3 2 2 2 2 3 3 3 3 3 3 3 3 3 3 3
2 2 2 3 3 3 3 3 2 2 3 3 3 3 3 3 3 3 4 4 3 4 3 3 4 6 6 4 2 2 2 2 3 3 3 3 3 3 3 3 3 4 3 3
2 2 3 3 2 2 3 4 3 3 3 3 4 3 3 2 3 3 3 4 5 4 3 4 5 6 5 2 2 2 2 2 2 3 3 3 2 2 3 3 3 3 3 3
3 3 3 3 3 4 5 4 3 3 3 3 3 3 3 2 3 3 3 3 4 4 2 4 5 6 4 2 2 2 2 2 2 2 2 2 2 3 3 3 3 3 3 3
3 3 4 4 4 4 3 3 3 3 3 3 3 3 2 2 3 2 2 3 3 3 2 2 3 3 2 2 2 2 2 3 3 2 2 2 3 3 3 3 3 3 2 2
3 3 3 3 3 3 3 3 4 4 4 4 3 3 3 3 2 2 2 2 2 2 2 2 2 2 2 2 2 2 2 2 2 2 2 2 2 2 2 3 2 2 2 2
Wind_Direction
248 263 250 251 257 231 212 211 212 237 239 265 273 273 283 289 295 310 324 330 334 324 317 316 314 296 264 249 244 220 207 220 236 235 230 226 227 229 221 217 223 218 219 231
292 305 286 272 268 248 240 232 230 248 264 270 281 305 314 306 301 296 298 301 306 315 314 305 293 286 276 254 245 223 222 236 246 241 236 232 231 227 217 219 223 215 217 221
273 310 340 282 255 230 223 228 200 230 251 272 307 293 274 285 293 275 291 300 296 289 280 279 278 268 261 256 245 224 229 242 246 243 241 237 236 224 220 224 222 223 226 225
220 12 248 253 263 198 214 269 247 247 273 270 253 273 298 308 312 306 311 313 308 302 297 294 295 291 269 267 241 232 239 247 247 239 240 237 229 227 227 223 221 224 233 235
153 222 276 294 282 205 208 278 259 237 277 318 354 13 342 340 343 301 295 296 299 297 292 300 308 301 278 301 278 254 253 251 249 241 237 232 229 232 231 221 227 228 230 235
152 200 245 261 282 285 131 281 287 225 246 276 50 346 288 314 336 326 318 317 320 325 328 327 320 328 329 312 307 277 265 259 253 245 234 229 230 232 232 222 228 231 237 237
185 223 260 264 290 89 164 263 291 245 238 210 217 237 264 302 318 314 317 321 328 337 331 316 316 332 324 315 296 285 280 278 268 256 238 227 228 232 230 228 227 231 239 246
171 206 253 266 121 173 225 278 301 283 257 241 259 280 298 306 307 313 319 324 331 336 325 319 318 317 309 296 291 304 305 297 293 281 262 256 228 237 238 224 226 240 248 259
196 217 249 260 221 254 198 221 254 259 278 257 277 288 299 301 300 303 304 305 308 303 310 312 312 299 293 295 308 321 324 310 295 292 296 285 248 248 259 243 233 246 246 255
248 270 277 280 284 293 248 230 241 238 251 252 265 275 291 295 301 306 307 304 311 314 309 310 314 310 293 300 315 322 319 308 293 299 312 316 307 271 259 253 249 250 252 255
255 280 305 295 277 270 281 283 300 302 279 260 262 278 280 287 295 298 300 302 302 287 285 293 306 312 315 319 329 327 317 311 298 294 291 308 309 291 272 259 257 255 255 252
236 235 222 260 271 261 261 276 274 301 316 310 275 271 281 283 286 291 294 295 294 294 294 296 302 307 311 311 310 310 309 311 302 296 293 294 303 326 323 303 299 293 277 267
238 254 236 260 275 269 252 267 274 271 270 288 294 276 273 283 287 291 294 292 279 279 287 294 300 302 303 303 297 290 285 288 299 294 285 283 281 284 319 336 338 324 309 297
233 218 257 254 257 264 251 275 301 316 301 282 283 292 290 290 295 298 295 290 285 284 289 291 295 297 298 297 296 295 293 285 288 280 274 273 274 277 280 296 314 321 323 320
240 218 223 237 234 270 276 301 337 317 311 313 310 304 298 294 296 299 301 302 308 303 300 300 299 299 304 298 289 290 295 289 285 286 282 275 280 290 296 292 295 304 316 323
252 243 195 195 228 252 264 270 272 282 289 299 309 307 302 295 300 307 309 305 307 297 298 298 297 298 305 308 299 297 295 297 305 298 287 285 286 288 294 290 291 295 299 302
199 231 223 233 242 247 253 257 254 265 280 289 290 293 308 319 318 312 308 301 291 288 292 293 296 301 305 306 300 293 293 294 306 308 289 274 271 271 273 275 278 285 289 285
217 219 216 213 225 241 259 271 268 268 273 277 286 297 300 291 287 290 293 304 318 319 311 301 299 305 306 309 303 290 284 283 283 283 287 280 278 273 270 268 272 277 290 296
232 221 224 224 223 227 245 261 267 272 281 284 280 276 275 275 279 283 289 301 311 309 306 306 311 317 308 306 313 296 294 294 296 296 295 289 291 286 278 271 274 277 281 288
295 266 255 258 248 234 246 261 269 280 280 275 274 279 283 282 281 285 291 290 282 283 292 304 312 311 304 297 307 294 289 287 292 299 303 297 285 283 282 279 278 282 287 287
299 303 295 281 280 274 257 255 265 275 281 273 260 260 266 277 279 278 291 299 297 298 301 308 315 304 299 297 299 291 284 286 289 292 294 293 290 291 289 285 281 281 284 287
286 280 281 286 281 289 290 279 267 270 282 285 278 267 270 281 286 288 276 274 290 303 307 301 301 301 305 307 305 301 296 292 290 290 289 287 283 283 284 285 283 279 275 273
281 277 278 279 272 277 295 292 273 269 269 265 261 261 262 267 263 267 288 292 294 303 310 297 305 314 316 316 309 302 296 292 293 292 287 280 274 273 274 278 282 283 278 276
290 289 288 290 288 278 278 279 274 271 265 262 255 250 248 266 285 275 266 290 308 308 306 310 327 337 339 338 322 307 295 291 291 290 290 290 288 282 277 277 281 284 283 281
274 280 286 283 271 264 262 269 277 274 267 267 266 262 253 240 253 275 278 282 302 311 314 324 338 345 351 344 332 316 307 301 297 292 294 297 293 286 284 281 280 283 283 281
273 271 270 266 262 265 269 264 259 260 256 263 274 269 268 269 265 272 282 291 295 308 316 322 331 340 341 336 325 319 316 312 310 307 297 293 289 287 286 287 290 290 285 281
287 285 288 295 288 268 260 255 251 249 241 237 253 258 257 263 266 270 282 295 298 299 304 314 324 328 328 328 326 324 322 314 306 306 303 299 300 298 297 298 303 303 301 294
Height
1524 1521 1520 1520 1519 1519 1522 1524 1527 1522 1519 1513 1510 1509 1508 1507 1506 1505 1505 1504 1504 1503 1503 1502 1502 1502 1502 1502 1503 1503 1504 1504 1504 1504 1505 1505 1505 1506 1506 1506 1506 1507 1507 1507
1524 1520 1519 1520 1517 1517 1517 1517 1518 1516 1515 1509 1508 1507 1506 1505 1504 1504 1503 1503 1503 1502 1501 1500 1499 1499 1498 1498 1499 1499 1500 1500 1500 1500 1500 1500 1501 1501 1502 1502 1502 1502 1502 1502
1530 1524 1520 1523 1516 1514 1514 1513 1514 1515 1512 1507 1507 1506 1505 1504 1503 1502 1502 1502 1501 1500 1499 1498 1496 1495 1495 1495 1495 1495 1495 1496 1496 1496 1495 1495 1496 1496 1497 1497 1497 1497 1497 1497
1532 1527 1530 1519 1509 1509 1510 1509 1509 1508 1507 1506 1505 1504 1504 1503 1503 1501 1500 1499 1498 1497 1496 1495 1494 1492 1492 1491 1491 1491 1491 1491 1491 1491 1490 1491 1491 1491 1492 1492 1493 1493 1493 1493
1535 1532 1525 1515 1509 1509 1510 1509 1506 1506 1505 1504 1504 1503 1502 1502 1502 1501 1500 1498 1497 1495 1494 1492 1491 1490 1488 1488 1487 1487 1486 1486 1486 1486 1485 1485 1485 1486 1487 1487 1487 1488 1488 1488
1533 1530 1527 1514 1506 1505 1508 1510 1505 1504 1504 1504 1503 1506 1503 1501 1500 1499 1498 1496 1495 1493 1491 1490 1488 1487 1486 1484 1484 1483 1482 1482 1481 1481 1480 1480 1481 1481 1482 1482 1482 1483 1483 1483
1529 1528 1520 1509 1505 1506 1515 1511 1504 1502 1502 1502 1503 1503 1501 1499 1498 1497 1495 1494 1492 1491 1489 1487 1486 1485 1483 1481 1480 1480 1479 1478 1477 1476 1476 1476 1476 1477 1477 1478 1478 1477 1477 1478
1527 1527 1520 1505 1505 1508 1507 1503 1502 1502 1501 1501 1501 1499 1498 1497 1496 1494 1493 1491 1490 1488 1486 1485 1484 1483 1481 1479 1478 1477 1475 1474 1473 1472 1472 1472 1472 1472 1473 1473 1473 1472 1472 1472
1515 1513 1506 1504 1503 1503 1503 1502 1502 1501 1501 1500 1499 1497 1496 1495 1494 1492 1491 1489 1487 1486 1484 1483 1482 1480 1479 1477 1475 1473 1472 1471 1470 1469 1468 1468 1468 1468 1468 1468 1468 1467 1467 1467
1510 1505 1503 1502 1501 1501 1501 1501 1500 1500 1499 1498 1497 1495 1494 1493 1491 1490 1488 1486 1485 1483 1482 1480 1479 1478 1477 1475 1473 1471 1469 1468 1467 1466 1465 1465 1465 1465 1465 1464 1464 1463 1463 1462
1507 1503 1501 1500 1500 1499 1499 1498 1498 1497 1497 1496 1495 1493 1492 1490 1489 1487 1485 1484 1482 1481 1479 1478 1477 1476 1474 1472 1470 1468 1467 1465 1464 1463 1463 1462 1462 1462 1461 1461 1461 1460 1459 1458
1503 1499 1500 1498 1498 1497 1497 1496 1496 1495 1494 1493 1493 1491 1490 1488 1486 1485 1483 1481 1480 1479 1477 1476 1474 1473 1471 1470 1468 1466 1464 1462 1461 1460 1459 1459 1458 1458 1458 1458 1457 1456 1456 1455
1496 1496 1496 1495 1495 1495 1495 1494 1494 1493 1492 1491 1490 1489 1487 1485 1484 1482 1481 1479 1477 1476 1475 1473 1471 1470 1468 1467 1465 1463 1461 1460 1458 1457 1456 1456 1455 1454 1452 1452 1453 1452 1451 1451
1493 1493 1493 1492 1492 1492 1492 1492 1492 1491 1490 1489 1487 1486 1484 1483 1481 1480 1478 1477 1475 1473 1472 1470 1468 1466 1465 1464 1462 1460 1458 1457 1456 1455 1454 1453 1452 1451 1450 1449 1448 1447 1447 1446
1490 1490 1490 1490 1490 1490 1490 1489 1489 1488 1487 1486 1485 1483 1482 1480 1478 1477 1475 1474 1472 1470 1468 1467 1465 1463 1462 1460 1459 1457 1456 1454 1453 1452 1451 1450 1449 1448 1447 1446 1445 1443 1442 1442
1486 1486 1487 1487 1487 1487 1487 1486 1486 1485 1484 1483 1482 1480 1479 1478 1476 1474 1473 1471 1469 1467 1465 1463 1462 1460 1459 1457 1455 1454 1452 1451 1450 1449 1448 1447 1446 1445 1444 1443 1442 1440 1439 1438
1483 1483 1483 1483 1483 1484 1484 1483 1483 1482 1481 1480 1479 1478 1476 1475 1473 1472 1470 1468 1466 1464 1462 1460 1458 1457 1455 1454 1452 1450 1449 1448 1447 1446 1445 1444 1443 1443 1441 1440 1439 1437 1436 1435
1480 1480 1480 1480 1481 1481 1480 1480 1480 1479 1479 1478 1476 1475 1473 1472 1470 1468 1467 1465 1463 1461 1459 1457 1455 1453 1452 1450 1449 1447 1446 1445 1444 1443 1441 1441 1440 1439 1438 1437 1436 1434 1433 1432
1477 1478 1478 1478 1478 1478 1477 1477 1477 1476 1475 1475 1473 1472 1470 1469 1467 1465 1464 1461 1459 1457 1455 1454 1452 1450 1448 1447 1446 1444 1443 1441 1440 1439 1438 1437 1436 1436 1435 1434 1432 1431 1430 1429
1475 1475 1475 1475 1475 1475 1475 1474 1474 1473 1472 1471 1470 1468 1467 1465 1464 1462 1460 1458 1456 1454 1452 1450 1448 1447 1445 1444 1442 1441 1439 1438 1437 1436 1434 1433 1433 1432 1431 1430 1429 1428 1427 1426
1473 1473 1473 1473 1473 1472 1472 1471 1470 1469 1468 1468 1466 1465 1463 1462 1461 1459 1457 1455 1453 1451 1449 1447 1445 1443 1442 1440 1439 1437 1436 1435 1434 1432 1431 1430 1429 1428 1427 1427 1426 1425 1424 1424
1472 1471 1471 1470 1470 1469 1469 1468 1467 1466 1465 1464 1463 1461 1460 1459 1457 1456 1454 1453 1450 1448 1446 1444 1442 1440 1438 1437 1435 1434 1433 1431 1430 1429 1428 1427 1426 1425 1424 1423 1423 1422 1421 1420
1469 1469 1468 1467 1467 1466 1465 1465 1464 1463 1461 1460 1459 1458 1457 1455 1454 1452 1450 1449 1447 1445 1443 1440 1438 1437 1435 1433 1432 1430 1429 1428 1427 1425 1424 1423 1422 1421 1421 1420 1419 1419 1417 1417
1467 1466 1465 1464 1464 1463 1462 1461 1460 1459 1458 1457 1456 1455 1453 1452 1450 1449 1447 1445 1444 1442 1439 1437 1435 1434 1432 1430 1429 1427 1426 1425 1423 1422 1421 1420 1419 1418 1417 1417 1416 1415 1414 1413
1464 1463 1462 1461 1460 1459 1459 1457 1456 1455 1454 1453 1452 1451 1450 1449 1447 1445 1444 1442 1440 1438 1436 1434 1433 1431 1429 1427 1426 1424 1423 1422 1420 1419 1418 1417 1416 1415 1414 1413 1412 1411 1411 1410
1461 1460 1459 1458 1457 1456 1455 1454 1452 1451 1450 1449 1448 1447 1446 1445 1444 1442 1441 1439 1437 1435 1434 1432 1430 1428 1427 1425 1423 1422 1420 1419 1418 1416 1415 1414 1413 1412 1411 1410 1409 1408 1408 1407
1457 1456 1455 1454 1453 1452 1451 1450 1449 1447 1447 1446 1445 1444 1443 1442 1440 1439 1437 1435 1434 1432 1431 1429 1428 1426 1424 1422 1421 1419 1418 1416 1415 1414 1413 1412 1410 1409 1408 1407 1406 1405 1405 1404